Avalon, CA

9:58 PM PST on December 08, 2016 (GMT -0800)
Catalina

Weather History for KAVX - November, 2012

Change the Weather History Date:

Saturday, November 17, 2012

  Actual Average Record
Temperature  
Mean Temperature 58 °F -  
Max Temperature 61 °F 62 °F 84 °F (2008)
Min Temperature 55 °F 52 °F 48 °F (2000)
Degree Days  
Heating Degree Days 7    
Growing Degree Days 8 (Base 50)    
Moisture  
Dew Point 57 °F    
Average Humidity 98    
Maximum Humidity 100    
Minimum Humidity 88    
Precipitation  
Precipitation 0.03 in - - ()
Sea Level Pressure  
Sea Level Pressure 30.08 in    
Wind  
Wind Speed 6 mph (SSW)    
Max Wind Speed 12 mph    
Max Gust Speed 18 mph    
Visibility 6 miles    
Events Fog , Rain    
Averages and records for this station are not official NWS values.
T = Trace of Precipitation, MM = Missing Value Source: NWS Daily Summary

Daily Weather History Graph

Daily Weather History Graph

Search for Another Location

Airport or City:

Trip Planner

Search our weather history database for the weather conditions in past years. The results will help you decide how hot, cold, wet, or windy it might be!

Date:

Astronomy

Nov. 17, 2012 Rise Set
Actual Time 6:27 AM PST 4:49 PM PST
Civil Twilight 6:00 AM PST 5:16 PM PST
Nautical Twilight 5:30 AM PST 5:46 PM PST
Astronomical Twilight 5:01 AM PST 6:15 PM PST
Moon 10:15 AM PST (11/17) 9:04 PM PST (11/17)
Length of Visible Light 11h 15m
Length of Day
10h 22m
Waxing Crescent, 21% of the Moon is Illuminated
Nov 17
Waxing Crescent
Nov 20
First Quarter
Nov 28
Full
Dec 6
Last Quarter
Dec 13
New

Hourly Weather History & Observations

Time (PST) Temp. Dew Point Humidity Pressure Visibility Wind Dir Wind Speed Gust Speed Precip Events Conditions
12:16 AM 55.4 °F 55.4 °F 100% 30.09 in 0.2 mi South 4.6 mph - 0.00 in Fog Fog
12:21 AM 55.4 °F 55.4 °F 100% 30.09 in 1.0 mi South 4.6 mph - 0.00 in   Overcast
12:23 AM 55.4 °F 55.4 °F 100% 30.09 in 2.0 mi South 5.8 mph - 0.00 in   Overcast
12:27 AM 55.4 °F 55.4 °F 100% 30.09 in 9.0 mi South 4.6 mph - 0.00 in   Overcast
12:51 AM 55.9 °F 55.9 °F 100% 30.05 in 10.0 mi Calm Calm - 0.00 in   Overcast
1:11 AM 55.4 °F 55.4 °F 100% 30.08 in 10.0 mi SW 5.8 mph - 0.00 in Rain Light Rain
1:20 AM 55.4 °F 55.4 °F 100% 30.07 in 10.0 mi SW 6.9 mph - 0.00 in   Overcast
1:32 AM 57.2 °F 57.2 °F 100% 30.07 in 10.0 mi WSW 6.9 mph - 0.00 in   Overcast
1:51 AM 57.0 °F 57.0 °F 100% 30.04 in 10.0 mi SW 4.6 mph - 0.00 in   Overcast
2:51 AM 57.0 °F 57.0 °F 100% 30.03 in 10.0 mi SW 5.8 mph - N/A   Overcast
3:41 AM 57.2 °F 57.2 °F 100% 30.06 in 10.0 mi SSW 4.6 mph - N/A   Overcast
3:51 AM 55.9 °F 55.9 °F 100% 30.03 in 10.0 mi SSW 4.6 mph - N/A   Overcast
4:36 AM 57.2 °F 55.4 °F 94% 30.06 in 10.0 mi Calm Calm - N/A   Mostly Cloudy
4:51 AM 57.0 °F 55.9 °F 96% 30.04 in 10.0 mi Calm Calm - N/A   Overcast
5:02 AM 57.2 °F 57.2 °F 100% 30.06 in 9.0 mi Calm Calm - N/A   Overcast
5:08 AM 57.2 °F 57.2 °F 100% 30.07 in 1.8 mi South 4.6 mph - N/A   Overcast
5:13 AM 57.2 °F 57.2 °F 100% 30.07 in 0.8 mi South 4.6 mph - N/A   Overcast
5:51 AM 57.0 °F 57.0 °F 100% 30.06 in 0.5 mi South 8.1 mph - N/A Fog Fog
6:51 AM 55.9 °F 55.9 °F 100% 30.06 in 0.8 mi South 5.8 mph - N/A   Overcast
6:58 AM 57.2 °F 57.2 °F 100% 30.09 in 1.8 mi Variable 5.8 mph - N/A   Overcast
7:05 AM 57.2 °F 57.2 °F 100% 30.09 in 3.0 mi South 6.9 mph - N/A   Overcast
7:20 AM 57.2 °F 57.2 °F 100% 30.10 in 8.0 mi South 8.1 mph - 0.00 in Rain Light Rain
7:28 AM 57.2 °F 57.2 °F 100% 30.10 in 10.0 mi South 6.9 mph - 0.00 in   Overcast
8:51 AM 57.9 °F 57.9 °F 100% 30.09 in 9.0 mi South 9.2 mph - 0.00 in   Overcast
9:10 AM 59.0 °F 57.2 °F 94% 30.12 in 10.0 mi South 9.2 mph - N/A   Overcast
9:33 AM 59.0 °F 57.2 °F 94% 30.12 in 10.0 mi South 11.5 mph 16.1 mph N/A   Overcast
9:51 AM 60.1 °F 57.9 °F 93% 30.10 in 10.0 mi South 9.2 mph - N/A   Overcast
10:51 AM 61.0 °F 57.9 °F 90% 30.09 in 10.0 mi Variable 5.8 mph - N/A   Mostly Cloudy
11:25 AM 60.8 °F 57.2 °F 88% 30.11 in 10.0 mi South 6.9 mph - N/A   Overcast
11:44 AM 60.8 °F 57.2 °F 88% 30.10 in 10.0 mi South 10.4 mph 16.1 mph N/A   Overcast
11:51 AM 60.1 °F 57.0 °F 90% 30.07 in 10.0 mi South 5.8 mph - N/A   Overcast
12:11 PM 60.8 °F 57.2 °F 88% 30.09 in 9.0 mi South 9.2 mph - N/A   Overcast
12:23 PM 59.0 °F 57.2 °F 94% 30.08 in 8.0 mi South 10.4 mph - 0.00 in Rain Light Rain
12:51 PM 60.1 °F 57.9 °F 93% 30.06 in 10.0 mi South 8.1 mph - 0.00 in   Overcast
1:03 PM 60.8 °F 57.2 °F 88% 30.08 in 10.0 mi South 8.1 mph - N/A   Overcast
1:23 PM 59.0 °F 57.2 °F 94% 30.08 in 4.0 mi South 5.8 mph - 0.01 in Rain Light Rain
1:51 PM 59.0 °F 57.9 °F 96% 30.04 in 10.0 mi South 8.1 mph - 0.02 in   Overcast
2:07 PM 60.8 °F 57.2 °F 88% 30.07 in 10.0 mi South 8.1 mph - N/A   Overcast
2:40 PM 59.0 °F 57.2 °F 94% 30.07 in 7.0 mi South 9.2 mph - 0.00 in Rain Light Rain
2:49 PM 59.0 °F 57.2 °F 94% 30.07 in 10.0 mi South 11.5 mph - 0.00 in   Overcast
2:51 PM 59.0 °F 57.9 °F 96% 30.04 in 10.0 mi South 10.4 mph - 0.00 in   Overcast
3:29 PM 57.2 °F 57.2 °F 100% 30.06 in 10.0 mi South 6.9 mph - 0.00 in Rain Light Rain
3:51 PM 57.9 °F 57.9 °F 100% 30.04 in 1.2 mi South 6.9 mph - 0.00 in Rain Light Rain
3:53 PM 57.2 °F 57.2 °F 100% 30.06 in 0.8 mi South 6.9 mph - 0.00 in Rain Light Rain
4:23 PM 57.2 °F 57.2 °F 100% 30.06 in 1.2 mi SSW 9.2 mph - 0.00 in   Overcast
4:29 PM 57.2 °F 57.2 °F 100% 30.06 in 3.0 mi SSW 9.2 mph 16.1 mph 0.00 in   Overcast
4:34 PM 57.2 °F 57.2 °F 100% 30.06 in 1.8 mi SSW 10.4 mph 17.3 mph 0.00 in   Overcast
4:43 PM 57.2 °F 57.2 °F 100% 30.06 in 3.0 mi SSW 9.2 mph 18.4 mph 0.00 in   Mostly Cloudy
4:51 PM 57.0 °F 57.0 °F 100% 30.04 in 10.0 mi SSW 6.9 mph - 0.00 in   Overcast
5:16 PM 57.2 °F 57.2 °F 100% 30.07 in 1.8 mi SSW 5.8 mph - 0.00 in Rain Light Rain
5:20 PM 57.2 °F 57.2 °F 100% 30.07 in 0.8 mi SW 10.4 mph - 0.00 in Rain Light Rain
5:51 PM 55.9 °F 55.9 °F 100% 30.05 in 0.2 mi SSW 6.9 mph - 0.00 in Fog Fog
6:51 PM 55.9 °F 55.9 °F 100% 30.07 in 0.2 mi WSW 6.9 mph - 0.01 in Fog Fog
7:51 PM 55.9 °F 55.9 °F 100% 30.07 in 0.8 mi WSW 5.8 mph - 0.00 in   Mist
8:51 PM 55.9 °F 55.9 °F 100% 30.08 in 0.2 mi Calm Calm - N/A Fog Fog
9:12 PM 55.4 °F 55.4 °F 100% 30.11 in 1.5 mi WSW 4.6 mph - N/A   Mostly Cloudy
9:14 PM 55.4 °F 55.4 °F 100% 30.11 in 5.0 mi WSW 5.8 mph - N/A   Mostly Cloudy
9:26 PM 55.4 °F 55.4 °F 100% 30.12 in 6.0 mi WSW 5.8 mph - N/A   Scattered Clouds
9:29 PM 55.4 °F 55.4 °F 100% 30.12 in 2.0 mi WSW 6.9 mph - N/A   Mostly Cloudy
9:33 PM 55.4 °F 55.4 °F 100% 30.12 in 1.0 mi WSW 5.8 mph - N/A   Mostly Cloudy
9:40 PM 55.4 °F 55.4 °F 100% 30.12 in 0.5 mi WSW 4.6 mph - N/A Fog Fog
9:51 PM 55.9 °F 55.9 °F 100% 30.09 in 1.0 mi SW 5.8 mph - N/A   Overcast
10:06 PM 55.4 °F 55.4 °F 100% 30.11 in 0.8 mi WSW 4.6 mph - N/A   Mist
10:27 PM 55.4 °F 55.4 °F 100% 30.12 in 1.8 mi SW 5.8 mph - N/A   Mostly Cloudy
10:29 PM 55.4 °F 55.4 °F 100% 30.12 in 4.0 mi SW 5.8 mph - N/A   Mostly Cloudy
10:32 PM 55.4 °F 55.4 °F 100% 30.12 in 1.8 mi SW 5.8 mph - N/A   Mostly Cloudy
10:35 PM 55.4 °F 55.4 °F 100% 30.12 in 0.8 mi SW 5.8 mph - N/A   Mostly Cloudy
10:51 PM 55.9 °F 55.9 °F 100% 30.09 in 0.5 mi WSW 4.6 mph - N/A Fog Fog
11:00 PM 55.4 °F 55.4 °F 100% 30.12 in 1.2 mi SW 4.6 mph - N/A   Overcast
11:03 PM 55.4 °F 55.4 °F 100% 30.12 in 4.0 mi SW 4.6 mph - N/A   Overcast
11:51 PM 55.9 °F 55.9 °F 100% 30.10 in 10.0 mi WSW 4.6 mph - N/A   Scattered Clouds